SCP
0 0 0 0 0 0 0 2 2 2 3 2 1 1 1 0 0 0 0 0 0 0 0 0 0 0 0 0 0 0 0 0 0 0 0 0 0 0 0 0 0 0 0
0 0 0 0 0 0 0 0 1 2 3 3 2 2 1 1 1 0 0 0 0 0 0 0 0 0 0 0 0 0 0 0 0 0 0 0 0 0 0 0 0 0 0
0 0 0 0 0 0 0 0 0 1 3 2 3 2 2 0 1 0 0 0 0 0 0 0 0 0 0 0 0 0 0 0 0 0 0 0 0 0 0 0 0 0 0
0 0 -0 -0 -0 -0 -0 0 0 0 0 0 3 3 3 1 1 1 0 0 0 0 0 0 0 0 0 0 0 0 0 0 0 0 0 0 0 0 0 0 0 0 0
0 0 0 0 0 -0 -0 -0 -0 0 0 0 1 3 3 3 2 1 0 0 0 0 0 0 0 0 0 0 0 0 0 0 0 0 0 0 0 0 0 0 0 0 0
0 0 0 0 -0 -0 -0 -0 -0 0 0 0 0 0 0 1 2 0 0 0 0 0 0 0 0 0 0 0 0 0 0 0 0 0 0 0 0 0 0 0 0 0 0
0 0 0 0 0 -0 -0 0 0 0 0 0 0 0 0 0 0 0 0 0 0 0 0 0 0 0 0 0 0 0 0 0 0 0 0 0 0 0 0 0 0 0 0
0 0 0 0 0 0 0 0 0 0 -0 -0 -0 -0 -0 -0 -0 -0 0 0 0 0 0 0 0 0 0 0 0 0 0 0 0 0 0 0 0 0 0 0 0 0 0
0 0 0 0 0 0 0 0 0 0 0 0 -0 -0 -0 -0 -0 -0 -0 0 0 0 0 0 0 0 0 0 0 0 0 0 0 0 0 0 0 0 0 0 0 0 0
0 0 0 0 0 0 0 0 0 0 0 0 -0 -0 -0 -0 -0 -0 0 0 0 0 0 0 0 0 0 0 0 0 0 0 0 0 0 0 0 0 0 0 0 0 0
0 0 0 0 0 0 0 0 0 0 0 -0 -0 -0 -0 -0 -0 -0 -0 -0 0 0 0 0 0 0 0 0 0 0 0 0 0 0 0 0 0 0 0 0 0 0 0
0 0 0 0 0 0 0 0 0 0 0 0 0 0 -0 -0 -0 -0 -0 -0 -0 0 0 0 0 0 0 0 0 0 0 0 0 0 0 0 0 0 0 0 0 0 0
0 0 0 0 0 0 0 0 0 0 0 0 0 0 0 0 0 0 0 0 0 -0 0 0 0 0 0 0 0 0 0 0 0 0 0 0 0 0 0 0 0 0 0
0 0 0 0 0 0 0 0 0 0 0 0 0 -0 0 0 0 0 0 0 0 0 0 0 0 0 0 0 0 0 0 0 0 0 0 0 0 0 0 0 0 0 0
0 0 0 0 0 0 0 0 0 0 0 0 0 0 -0 0 0 0 0 0 0 0 0 0 0 0 0 0 0 0 0 0 0 0 0 0 0 0 0 0 0 0 0
0 0 0 0 0 0 0 0 0 0 0 0 0 0 0 0 0 0 0 0 0 0 0 0 0 0 0 0 0 0 0 0 0 0 0 0 0 0 0 0 0 0 0
0 0 0 0 0 0 0 0 0 0 0 0 0 0 0 0 0 0 0 0 0 0 0 0 0 0 0 0 0 0 0 0 0 0 0 0 0 0 0 0 0 0 0
0 0 0 0 0 0 0 0 0 0 0 0 0 0 0 0 0 0 0 0 0 0 0 0 0 0 0 0 0 0 0 0 0 0 0 0 0 0 0 0 0 0 0
0 0 0 0 0 0 0 0 0 0 0 0 0 0 0 0 0 0 0 0 0 0 0 0 0 0 0 0 0 0 0 0 0 0 0 0 0 0 0 0 0 0 0
0 0 0 0 0 0 0 0 0 0 0 0 0 0 0 0 0 0 0 0 0 0 0 0 0 0 0 0 0 0 0 0 0 0 0 0 0 0 0 0 0 0 0
0 0 0 0 0 0 0 0 0 0 0 0 0 0 0 0 0 0 0 0 0 0 0 0 0 0 0 0 0 0 0 0 0 0 0 0 0 0 0 0 0 0 0
0 0 0 0 0 0 0 0 0 0 0 0 0 0 0 0 0 0 0 0 0 0 0 0 0 0 0 0 0 0 0 0 0 0 0 0 0 0 0 0 0 0 0
0 0 0 0 0 0 0 0 -0 0 0 0 0 0 0 0 0 0 0 0 0 0 0 0 0 0 0 0 0 0 0 0 0 0 0 0 0 0 0 0 0 0 0
0 0 0 0 0 0 0 0 0 0 0 0 0 0 0 0 0 0 0 0 0 0 0 0 0 0 0 0 0 0 0 0 0 0 0 0 0 0 0 0 0 0 0
0 0 0 0 0 0 0 0 0 0 0 0 0 0 0 0 0 0 0 0 0 0 0 0 0 0 0 0 0 0 0 0 0 0 0 0 0 0 0 0 0 0 0
0 0 0 0 -0 0 0 0 0 0 0 0 0 0 0 0 0 0 0 0 0 0 0 0 0 0 0 0 0 0 0 0 0 0 0 0 0 0 0 0 0 0 0
Wind_Speed_500mb
33 29 34 39 33 23 29 48 63 71 83 96 102 110 111 103 103 108 110 106 97 92 93 88 77 76 80 72 75 70 67 62 62 57 50 43 37 33 31 28 27 25 23
35 40 44 43 43 39 28 39 57 64 82 88 96 101 107 109 107 108 115 111 106 101 99 96 92 90 97 91 88 78 79 73 70 71 63 42 39 42 39 36 30 28 26
35 42 47 49 46 42 41 46 49 50 70 81 90 91 91 92 103 107 113 121 119 111 106 106 106 101 100 95 97 86 96 90 83 81 53 27 25 52 49 46 39 34 29
32 39 44 46 49 50 44 43 45 50 55 59 79 94 100 102 108 111 112 119 123 118 115 113 112 115 112 110 110 96 102 102 97 91 83 44 28 33 34 54 48 41 37
29 38 44 46 46 47 48 49 44 37 41 55 69 80 97 107 106 101 107 110 118 122 116 123 124 125 125 123 120 113 111 106 97 96 96 75 42 35 28 46 64 56 47
33 36 38 42 45 46 44 40 43 48 50 50 52 65 55 82 107 102 117 114 111 117 122 123 132 136 138 137 123 112 110 106 107 94 96 95 86 59 41 28 59 64 57
39 39 41 47 47 46 44 42 44 49 51 50 46 45 51 48 40 33 76 97 112 115 120 126 117 146 142 140 129 124 116 112 107 102 95 92 85 69 53 39 45 59 52
43 48 47 50 53 48 42 43 40 49 51 51 58 56 46 52 58 51 48 43 53 73 87 85 94 113 118 139 125 127 114 105 100 93 85 85 85 74 59 51 43 37 47
52 56 49 43 51 50 45 44 43 45 48 50 51 56 48 42 40 39 43 37 44 44 41 56 64 74 70 107 93 95 76 89 91 83 81 76 81 74 56 46 40 39 43
62 59 53 54 54 48 43 44 45 44 42 43 44 47 50 42 48 34 19 18 30 37 42 39 51 68 62 60 56 67 76 78 76 74 67 66 70 63 55 48 42 45 35
52 49 57 58 49 38 40 42 43 47 45 41 39 36 33 40 41 35 26 23 21 20 25 27 31 44 50 55 55 67 75 76 74 66 72 67 68 60 53 54 57 51 41
47 49 56 54 50 31 36 42 44 44 45 42 37 38 35 32 35 34 27 21 30 26 17 16 19 12 29 40 51 52 54 60 63 68 69 69 75 66 68 62 61 58 50
50 61 67 64 38 17 13 17 25 32 32 26 28 34 33 34 34 36 41 39 23 17 22 12 15 19 18 36 42 47 54 55 58 62 65 73 68 62 59 55 56 56 60
51 40 30 25 21 15 18 20 22 27 31 34 34 31 30 28 28 27 35 41 37 31 32 30 9 19 12 29 39 33 39 42 47 53 53 61 69 79 71 68 68 60 57
59 44 31 28 25 19 21 22 23 26 30 32 38 43 45 37 28 34 36 38 37 32 33 29 25 20 34 22 39 50 45 49 54 52 53 47 36 40 41 46 49 52 51
45 29 27 29 33 36 39 36 33 32 35 36 39 43 43 40 27 24 27 31 35 36 33 28 33 43 46 42 47 44 51 51 45 40 42 39 35 32 35 34 36 42 53
23 40 42 44 46 49 51 55 53 49 46 48 45 42 41 37 41 35 34 36 36 41 40 33 28 36 39 42 42 46 49 47 45 44 37 43 39 38 39 40 38 36 42
61 71 64 58 57 60 61 57 55 56 55 56 53 44 43 50 49 42 39 40 47 41 39 41 29 30 39 37 36 33 44 48 43 40 37 37 34 35 37 38 40 43 38
72 78 78 74 80 79 72 61 61 64 65 63 59 54 52 51 52 45 41 37 42 44 39 38 34 38 33 34 32 32 42 48 45 43 38 33 36 37 38 37 38 36 36
78 77 69 78 77 80 64 53 61 64 64 64 66 58 56 53 51 48 40 43 44 45 33 38 39 37 39 35 35 35 44 50 51 44 40 39 38 39 38 34 31 33 32
82 76 76 75 65 55 54 64 66 70 71 63 66 67 62 56 49 49 50 48 46 45 35 37 47 42 40 37 37 36 41 47 52 51 51 49 44 38 35 30 28 27 27
90 83 78 76 70 67 66 66 59 56 60 55 51 50 52 54 49 49 54 55 46 42 39 41 48 48 44 42 37 33 39 44 48 51 52 50 45 37 32 30 29 28 28
79 78 83 83 87 79 72 62 64 64 66 60 55 52 49 49 54 55 51 49 42 38 42 47 51 52 50 50 44 39 44 46 47 45 49 47 40 36 34 30 29 28 28
78 75 76 79 82 76 68 72 69 60 55 64 60 56 51 47 51 51 43 35 35 39 42 48 51 55 55 58 53 51 51 46 47 49 47 47 45 35 32 36 33 28 23
77 70 68 72 72 65 63 69 64 54 65 54 49 45 42 43 44 37 33 30 29 33 39 45 50 56 60 62 62 64 56 53 52 57 58 54 47 44 42 36 31 27 26
78 76 73 77 75 72 65 51 47 58 37 34 33 34 39 37 32 31 28 26 21 18 24 28 33 41 49 56 59 57 53 52 56 58 55 52 49 46 43 39 31 25 27
Wind_Direction_500mb
17 9 1 353 344 294 270 280 269 268 254 250 247 244 242 240 242 242 241 241 239 241 232 232 225 227 224 219 219 215 218 209 211 201 191 190 197 201 204 206 208 209 209
18 18 18 9 1 347 287 252 257 264 259 259 252 250 247 247 247 247 246 246 243 239 229 230 226 222 225 218 215 214 212 212 209 203 190 183 196 201 203 203 206 208 211
23 20 19 18 13 6 358 338 294 268 264 265 261 255 245 240 247 246 248 250 244 237 235 233 227 225 226 220 218 214 219 213 205 209 194 178 200 200 203 202 207 207 211
24 14 8 11 16 16 9 349 344 326 273 262 255 257 254 248 244 248 250 249 250 244 235 235 230 229 224 222 221 219 220 217 209 203 209 207 204 177 189 203 207 207 209
8 7 7 2 356 354 359 357 351 325 310 288 274 263 260 250 252 250 243 245 251 251 242 235 234 230 224 224 221 216 214 218 217 213 208 207 207 195 179 192 202 205 207
8 4 2 353 349 351 353 348 337 326 326 328 318 272 276 259 249 245 245 245 245 249 248 241 239 232 225 222 221 222 218 219 220 219 219 215 211 201 194 182 202 206 204
359 355 353 349 345 348 350 358 1 359 353 346 316 306 292 306 295 296 255 248 248 250 248 246 243 236 229 221 217 215 215 215 219 220 221 221 220 221 219 209 192 198 201
345 335 332 335 331 328 327 341 348 354 353 354 356 342 329 314 300 323 313 275 257 238 238 244 244 243 235 217 216 213 210 214 218 220 222 221 221 223 223 218 209 179 192
340 330 321 323 329 321 321 315 320 329 340 349 348 349 344 336 329 319 327 316 295 269 261 247 250 257 245 225 218 216 219 216 216 217 217 216 220 219 216 221 215 212 191
326 327 330 328 324 318 315 314 311 317 323 331 336 347 349 341 338 336 319 316 314 312 301 271 260 253 237 234 222 222 207 210 206 207 212 205 215 214 211 224 221 212 206
311 310 322 325 319 308 309 310 308 310 312 312 316 322 342 352 350 345 327 5 5 351 296 307 260 244 234 232 225 220 213 213 214 207 214 213 215 216 206 200 211 220 217
299 313 323 322 320 304 298 304 309 307 307 300 297 300 307 322 348 348 352 360 14 4 359 282 279 266 241 244 238 221 215 209 206 201 219 220 210 207 215 218 222 224 217
304 309 305 310 317 300 307 318 330 332 328 317 314 308 301 297 306 317 319 305 309 342 323 351 312 259 241 237 236 227 226 225 221 214 217 225 215 204 214 218 224 217 220
317 319 324 325 332 322 330 334 329 328 331 329 329 325 314 296 294 311 312 313 313 288 282 294 274 281 215 234 230 227 230 233 234 230 226 220 222 233 240 240 239 226 215
304 294 301 312 321 322 320 318 321 323 328 325 323 320 321 318 284 284 297 299 308 305 289 279 237 280 228 241 223 229 228 229 219 231 238 238 239 238 230 226 231 231 204
284 290 302 309 317 322 326 324 315 317 314 311 309 313 312 309 309 321 324 315 310 301 286 287 271 251 242 236 224 226 217 222 224 229 225 229 226 221 231 226 215 212 189
287 310 307 308 310 311 310 307 310 312 312 314 308 302 300 303 308 305 311 317 311 305 287 271 262 256 249 240 226 226 219 219 217 215 216 212 214 211 205 198 181 178 188
297 302 298 299 302 304 303 300 298 298 299 300 306 299 296 292 298 298 299 297 304 297 289 266 260 248 247 236 231 218 216 214 211 211 205 209 208 208 203 187 181 188 196
300 298 295 297 304 304 300 293 295 295 293 293 299 293 290 288 290 291 289 293 303 297 288 266 253 239 236 237 240 215 204 206 205 200 202 202 205 199 191 181 185 197 219
300 299 291 300 298 293 292 289 296 299 300 292 290 291 283 281 281 283 283 293 294 288 276 256 245 238 236 235 240 225 206 201 195 193 194 194 191 181 180 191 203 205 204
300 297 294 291 292 296 289 292 293 293 298 293 289 285 287 271 273 279 287 288 283 277 267 252 244 235 231 229 237 228 213 204 193 190 187 181 179 184 194 204 203 203 201
296 296 296 296 294 295 298 290 287 302 302 293 298 286 277 274 276 277 283 284 277 265 253 244 237 231 226 226 226 228 205 202 197 192 186 183 186 196 200 194 189 188 184
290 290 289 291 289 289 292 283 294 300 294 291 284 284 282 277 276 282 280 274 269 251 246 236 229 220 216 211 218 206 193 196 192 190 183 183 192 190 185 185 182 174 179
288 286 285 286 288 288 281 285 297 293 280 287 282 276 275 273 281 281 279 270 252 247 243 233 223 218 209 202 194 187 190 186 176 174 179 183 183 179 177 170 167 171 178
291 289 285 284 288 294 290 289 286 276 283 281 271 269 273 286 284 278 270 260 250 248 250 244 234 220 208 203 192 186 183 179 174 171 174 177 175 173 175 172 175 174 180
294 290 284 285 284 285 294 287 276 283 268 266 271 281 286 282 272 264 261 251 238 241 240 241 248 226 228 200 185 181 181 177 173 175 178 180 182 183 181 183 180 182 182
Wind_Speed_850mb
33 29 34 39 33 23 29 48 63 71 83 96 102 110 111 103 103 108 110 106 97 92 93 88 77 76 80 72 75 70 67 62 62 57 50 43 37 33 31 28 27 25 23
35 40 44 43 43 39 28 39 57 64 82 88 96 101 107 109 107 108 115 111 106 101 99 96 92 90 97 91 88 78 79 73 70 71 63 42 39 42 39 36 30 28 26
35 42 47 49 46 42 41 46 49 50 70 81 90 91 91 92 103 107 113 121 119 111 106 106 106 101 100 95 97 86 96 90 83 81 53 27 25 52 49 46 39 34 29
32 39 44 46 49 50 44 43 45 50 55 59 79 94 100 102 108 111 112 119 123 118 115 113 112 115 112 110 110 96 102 102 97 91 83 44 28 33 34 54 48 41 37
29 38 44 46 46 47 48 49 44 37 41 55 69 80 97 107 106 101 107 110 118 122 116 123 124 125 125 123 120 113 111 106 97 96 96 75 42 35 28 46 64 56 47
33 36 38 42 45 46 44 40 43 48 50 50 52 65 55 82 107 102 117 114 111 117 122 123 132 136 138 137 123 112 110 106 107 94 96 95 86 59 41 28 59 64 57
39 39 41 47 47 46 44 42 44 49 51 50 46 45 51 48 40 33 76 97 112 115 120 126 117 146 142 140 129 124 116 112 107 102 95 92 85 69 53 39 45 59 52
43 48 47 50 53 48 42 43 40 49 51 51 58 56 46 52 58 51 48 43 53 73 87 85 94 113 118 139 125 127 114 105 100 93 85 85 85 74 59 51 43 37 47
52 56 49 43 51 50 45 44 43 45 48 50 51 56 48 42 40 39 43 37 44 44 41 56 64 74 70 107 93 95 76 89 91 83 81 76 81 74 56 46 40 39 43
62 59 53 54 54 48 43 44 45 44 42 43 44 47 50 42 48 34 19 18 30 37 42 39 51 68 62 60 56 67 76 78 76 74 67 66 70 63 55 48 42 45 35
52 49 57 58 49 38 40 42 43 47 45 41 39 36 33 40 41 35 26 23 21 20 25 27 31 44 50 55 55 67 75 76 74 66 72 67 68 60 53 54 57 51 41
47 49 56 54 50 31 36 42 44 44 45 42 37 38 35 32 35 34 27 21 30 26 17 16 19 12 29 40 51 52 54 60 63 68 69 69 75 66 68 62 61 58 50
50 61 67 64 38 17 13 17 25 32 32 26 28 34 33 34 34 36 41 39 23 17 22 12 15 19 18 36 42 47 54 55 58 62 65 73 68 62 59 55 56 56 60
51 40 30 25 21 15 18 20 22 27 31 34 34 31 30 28 28 27 35 41 37 31 32 30 9 19 12 29 39 33 39 42 47 53 53 61 69 79 71 68 68 60 57
59 44 31 28 25 19 21 22 23 26 30 32 38 43 45 37 28 34 36 38 37 32 33 29 25 20 34 22 39 50 45 49 54 52 53 47 36 40 41 46 49 52 51
45 29 27 29 33 36 39 36 33 32 35 36 39 43 43 40 27 24 27 31 35 36 33 28 33 43 46 42 47 44 51 51 45 40 42 39 35 32 35 34 36 42 53
23 40 42 44 46 49 51 55 53 49 46 48 45 42 41 37 41 35 34 36 36 41 40 33 28 36 39 42 42 46 49 47 45 44 37 43 39 38 39 40 38 36 42
61 71 64 58 57 60 61 57 55 56 55 56 53 44 43 50 49 42 39 40 47 41 39 41 29 30 39 37 36 33 44 48 43 40 37 37 34 35 37 38 40 43 38
72 78 78 74 80 79 72 61 61 64 65 63 59 54 52 51 52 45 41 37 42 44 39 38 34 38 33 34 32 32 42 48 45 43 38 33 36 37 38 37 38 36 36
78 77 69 78 77 80 64 53 61 64 64 64 66 58 56 53 51 48 40 43 44 45 33 38 39 37 39 35 35 35 44 50 51 44 40 39 38 39 38 34 31 33 32
82 76 76 75 65 55 54 64 66 70 71 63 66 67 62 56 49 49 50 48 46 45 35 37 47 42 40 37 37 36 41 47 52 51 51 49 44 38 35 30 28 27 27
90 83 78 76 70 67 66 66 59 56 60 55 51 50 52 54 49 49 54 55 46 42 39 41 48 48 44 42 37 33 39 44 48 51 52 50 45 37 32 30 29 28 28
79 78 83 83 87 79 72 62 64 64 66 60 55 52 49 49 54 55 51 49 42 38 42 47 51 52 50 50 44 39 44 46 47 45 49 47 40 36 34 30 29 28 28
78 75 76 79 82 76 68 72 69 60 55 64 60 56 51 47 51 51 43 35 35 39 42 48 51 55 55 58 53 51 51 46 47 49 47 47 45 35 32 36 33 28 23
77 70 68 72 72 65 63 69 64 54 65 54 49 45 42 43 44 37 33 30 29 33 39 45 50 56 60 62 62 64 56 53 52 57 58 54 47 44 42 36 31 27 26
78 76 73 77 75 72 65 51 47 58 37 34 33 34 39 37 32 31 28 26 21 18 24 28 33 41 49 56 59 57 53 52 56 58 55 52 49 46 43 39 31 25 27
Wind_Direction_850mb
17 9 1 353 344 294 270 280 269 268 254 250 247 244 242 240 242 242 241 241 239 241 232 232 225 227 224 219 219 215 218 209 211 201 191 190 197 201 204 206 208 209 209
18 18 18 9 1 347 287 252 257 264 259 259 252 250 247 247 247 247 246 246 243 239 229 230 226 222 225 218 215 214 212 212 209 203 190 183 196 201 203 203 206 208 211
23 20 19 18 13 6 358 338 294 268 264 265 261 255 245 240 247 246 248 250 244 237 235 233 227 225 226 220 218 214 219 213 205 209 194 178 200 200 203 202 207 207 211
24 14 8 11 16 16 9 349 344 326 273 262 255 257 254 248 244 248 250 249 250 244 235 235 230 229 224 222 221 219 220 217 209 203 209 207 204 177 189 203 207 207 209
8 7 7 2 356 354 359 357 351 325 310 288 274 263 260 250 252 250 243 245 251 251 242 235 234 230 224 224 221 216 214 218 217 213 208 207 207 195 179 192 202 205 207
8 4 2 353 349 351 353 348 337 326 326 328 318 272 276 259 249 245 245 245 245 249 248 241 239 232 225 222 221 222 218 219 220 219 219 215 211 201 194 182 202 206 204
359 355 353 349 345 348 350 358 1 359 353 346 316 306 292 306 295 296 255 248 248 250 248 246 243 236 229 221 217 215 215 215 219 220 221 221 220 221 219 209 192 198 201
345 335 332 335 331 328 327 341 348 354 353 354 356 342 329 314 300 323 313 275 257 238 238 244 244 243 235 217 216 213 210 214 218 220 222 221 221 223 223 218 209 179 192
340 330 321 323 329 321 321 315 320 329 340 349 348 349 344 336 329 319 327 316 295 269 261 247 250 257 245 225 218 216 219 216 216 217 217 216 220 219 216 221 215 212 191
326 327 330 328 324 318 315 314 311 317 323 331 336 347 349 341 338 336 319 316 314 312 301 271 260 253 237 234 222 222 207 210 206 207 212 205 215 214 211 224 221 212 206
311 310 322 325 319 308 309 310 308 310 312 312 316 322 342 352 350 345 327 5 5 351 296 307 260 244 234 232 225 220 213 213 214 207 214 213 215 216 206 200 211 220 217
299 313 323 322 320 304 298 304 309 307 307 300 297 300 307 322 348 348 352 360 14 4 359 282 279 266 241 244 238 221 215 209 206 201 219 220 210 207 215 218 222 224 217
304 309 305 310 317 300 307 318 330 332 328 317 314 308 301 297 306 317 319 305 309 342 323 351 312 259 241 237 236 227 226 225 221 214 217 225 215 204 214 218 224 217 220
317 319 324 325 332 322 330 334 329 328 331 329 329 325 314 296 294 311 312 313 313 288 282 294 274 281 215 234 230 227 230 233 234 230 226 220 222 233 240 240 239 226 215
304 294 301 312 321 322 320 318 321 323 328 325 323 320 321 318 284 284 297 299 308 305 289 279 237 280 228 241 223 229 228 229 219 231 238 238 239 238 230 226 231 231 204
284 290 302 309 317 322 326 324 315 317 314 311 309 313 312 309 309 321 324 315 310 301 286 287 271 251 242 236 224 226 217 222 224 229 225 229 226 221 231 226 215 212 189
287 310 307 308 310 311 310 307 310 312 312 314 308 302 300 303 308 305 311 317 311 305 287 271 262 256 249 240 226 226 219 219 217 215 216 212 214 211 205 198 181 178 188
297 302 298 299 302 304 303 300 298 298 299 300 306 299 296 292 298 298 299 297 304 297 289 266 260 248 247 236 231 218 216 214 211 211 205 209 208 208 203 187 181 188 196
300 298 295 297 304 304 300 293 295 295 293 293 299 293 290 288 290 291 289 293 303 297 288 266 253 239 236 237 240 215 204 206 205 200 202 202 205 199 191 181 185 197 219
300 299 291 300 298 293 292 289 296 299 300 292 290 291 283 281 281 283 283 293 294 288 276 256 245 238 236 235 240 225 206 201 195 193 194 194 191 181 180 191 203 205 204
300 297 294 291 292 296 289 292 293 293 298 293 289 285 287 271 273 279 287 288 283 277 267 252 244 235 231 229 237 228 213 204 193 190 187 181 179 184 194 204 203 203 201
296 296 296 296 294 295 298 290 287 302 302 293 298 286 277 274 276 277 283 284 277 265 253 244 237 231 226 226 226 228 205 202 197 192 186 183 186 196 200 194 189 188 184
290 290 289 291 289 289 292 283 294 300 294 291 284 284 282 277 276 282 280 274 269 251 246 236 229 220 216 211 218 206 193 196 192 190 183 183 192 190 185 185 182 174 179
288 286 285 286 288 288 281 285 297 293 280 287 282 276 275 273 281 281 279 270 252 247 243 233 223 218 209 202 194 187 190 186 176 174 179 183 183 179 177 170 167 171 178
291 289 285 284 288 294 290 289 286 276 283 281 271 269 273 286 284 278 270 260 250 248 250 244 234 220 208 203 192 186 183 179 174 171 174 177 175 173 175 172 175 174 180
294 290 284 285 284 285 294 287 276 283 268 266 271 281 286 282 272 264 261 251 238 241 240 241 248 226 228 200 185 181 181 177 173 175 178 180 182 183 181 183 180 182 182